TimeEDT,TemperatureF,Dew PointF,Humidity,Sea Level PressureIn,VisibilityMPH,Wind Direction,Wind SpeedMPH,Gust SpeedMPH,PrecipitationIn,Events,Conditions,WindDirDegrees,DateUTC
12:31 AM,55.4,55.4,100,29.85,2.5,North,9.2,-,0.00,Rain,Light Rain,360,2011-10-13 04:31:00
12:40 AM,55.4,55.4,100,29.84,3.0,North,9.2,-,0.01,Rain,Light Rain,360,2011-10-13 04:40:00
2:01 AM,55.4,55.4,100,29.83,3.0,North,9.2,-,0.00,,Overcast,360,2011-10-13 06:01:00
2:53 AM,55.9,55.0,97,29.84,5.0,North,8.1,-,0.00,,Overcast,360,2011-10-13 06:53:00
3:19 AM,55.4,55.4,100,29.80,5.0,North,10.4,-,N/A,,Overcast,360,2011-10-13 07:19:00
3:53 AM,55.9,55.0,97,29.83,5.0,North,8.1,-,0.00,Rain,Light Rain,350,2011-10-13 07:53:00
4:36 AM,55.4,55.4,100,29.79,5.0,North,8.1,-,0.01,Rain,Light Rain,350,2011-10-13 08:36:00
4:53 AM,55.9,55.0,97,29.81,6.0,North,8.1,-,0.01,,Overcast,360,2011-10-13 08:53:00
5:53 AM,55.9,55.0,97,29.81,7.0,North,9.2,-,N/A,,Overcast,350,2011-10-13 09:53:00
6:53 AM,55.9,55.0,97,29.80,6.0,North,10.4,-,0.00,Rain,Light Rain,350,2011-10-13 10:53:00
7:53 AM,57.0,55.0,93,29.80,7.0,North,5.8,-,0.00,,Overcast,10,2011-10-13 11:53:00
8:01 AM,57.2,55.4,94,29.77,6.0,North,4.6,-,N/A,,Overcast,10,2011-10-13 12:01:00
8:36 AM,57.2,55.4,94,29.78,3.0,NNW,5.8,-,N/A,,Overcast,340,2011-10-13 12:36:00
8:51 AM,57.2,55.4,94,29.78,2.5,North,8.1,-,N/A,,Overcast,350,2011-10-13 12:51:00
8:53 AM,57.0,55.0,93,29.81,2.5,NNW,8.1,-,N/A,,Overcast,340,2011-10-13 12:53:00
9:20 AM,57.2,55.4,94,29.77,2.0,North,9.2,-,N/A,,Overcast,360,2011-10-13 13:20:00
9:53 AM,57.9,55.9,93,29.78,2.0,North,9.2,-,N/A,,Overcast,350,2011-10-13 13:53:00
10:53 AM,59.0,57.0,93,29.78,7.0,NNW,5.8,-,N/A,,Overcast,340,2011-10-13 14:53:00
11:43 AM,59.0,57.2,94,29.74,3.0,North,5.8,-,0.02,Rain,Light Rain,350,2011-10-13 15:43:00
11:50 AM,60.8,57.2,88,29.74,2.0,North,5.8,-,0.02,Rain,Light Rain,350,2011-10-13 15:50:00
11:53 AM,60.1,57.9,93,29.76,2.5,North,6.9,-,0.02,Rain,Light Rain,350,2011-10-13 15:53:00
11:59 AM,60.8,57.2,88,29.74,3.0,North,5.8,-,0.00,Rain,Light Rain,360,2011-10-13 15:59:00
12:53 PM,63.0,60.1,90,29.74,10.0,NE,4.6,-,0.01,,Overcast,40,2011-10-13 16:53:00
1:39 PM,64.4,60.8,88,29.69,10.0,NE,4.6,-,0.00,,Overcast,40,2011-10-13 17:39:00
1:53 PM,63.0,60.1,90,29.70,9.0,North,5.8,-,0.00,,Overcast,10,2011-10-13 17:53:00
2:38 PM,64.4,60.8,88,29.66,10.0,NNE,5.8,-,N/A,,Overcast,30,2011-10-13 18:38:00
2:53 PM,64.9,61.0,87,29.68,8.0,NNE,3.5,-,N/A,,Overcast,30,2011-10-13 18:53:00
3:51 PM,64.4,60.8,88,29.63,3.0,ENE,8.1,-,0.00,,Overcast,60,2011-10-13 19:51:00
3:53 PM,64.0,61.0,90,29.65,3.0,ENE,9.2,-,0.00,,Overcast,60,2011-10-13 19:53:00
4:53 PM,64.9,62.1,90,29.63,10.0,ENE,8.1,-,N/A,,Overcast,70,2011-10-13 20:53:00
5:21 PM,66.2,62.6,88,29.60,10.0,ENE,3.5,-,N/A,,Overcast,60,2011-10-13 21:21:00
5:45 PM,62.6,60.8,94,29.60,7.0,NNW,6.9,-,N/A,,Overcast,340,2011-10-13 21:45:00
5:53 PM,63.0,61.0,93,29.62,7.0,North,6.9,-,N/A,,Overcast,360,2011-10-13 21:53:00
6:51 PM,64.4,62.6,94,29.60,2.5,East,4.6,-,0.10,Rain,Heavy Rain,80,2011-10-13 22:51:00
6:53 PM,64.9,63.0,93,29.62,2.0,ENE,4.6,-,0.13,Rain,Heavy Rain,60,2011-10-13 22:53:00
7:00 PM,64.4,62.6,94,29.59,3.0,ENE,6.9,-,0.00,Rain-Thunderstorm,Light Rain,70,2011-10-13 23:00:00
7:41 PM,64.4,62.6,94,29.59,8.0,Calm,Calm,-,0.00,,Overcast,0,2011-10-13 23:41:00
8:06 PM,62.6,60.8,94,29.58,4.0,NW,8.1,-,N/A,,Overcast,320,2011-10-14 00:06:00
8:21 PM,60.8,60.8,100,29.57,3.0,NNW,8.1,-,N/A,,Overcast,330,2011-10-14 00:21:00
8:24 PM,60.8,60.8,100,29.57,1.8,NNW,5.8,-,N/A,,Overcast,330,2011-10-14 00:24:00
8:41 PM,60.8,60.8,100,29.57,0.8,NNW,3.5,-,N/A,,Overcast,340,2011-10-14 00:41:00
8:49 PM,60.8,60.8,100,29.57,1.5,NE,4.6,-,N/A,,Mostly Cloudy,50,2011-10-14 00:49:00
8:53 PM,61.0,60.1,97,29.59,3.0,East,4.6,-,N/A,,Mostly Cloudy,80,2011-10-14 00:53:00
9:00 PM,62.6,62.6,100,29.56,6.0,East,4.6,-,N/A,,Mostly Cloudy,100,2011-10-14 01:00:00
9:15 PM,60.8,60.8,100,29.57,1.5,WNW,5.8,-,N/A,,Mostly Cloudy,290,2011-10-14 01:15:00
9:24 PM,60.8,60.8,100,29.57,0.5,Calm,Calm,-,N/A,Fog,Fog,0,2011-10-14 01:24:00
9:33 PM,60.8,60.8,100,29.56,2.0,Calm,Calm,-,N/A,,Overcast,0,2011-10-14 01:33:00
9:43 PM,60.8,59.0,94,29.56,1.8,Calm,Calm,-,N/A,,Overcast,0,2011-10-14 01:43:00
9:53 PM,61.0,60.1,97,29.58,0.5,West,5.8,-,N/A,Fog,Fog,280,2011-10-14 01:53:00
10:18 PM,60.8,60.8,100,29.56,0.8,WNW,4.6,-,N/A,,Mostly Cloudy,290,2011-10-14 02:18:00
10:45 PM,60.8,60.8,100,29.56,2.0,SE,3.5,-,0.02,Rain,Light Rain,130,2011-10-14 02:45:00
10:50 PM,60.8,60.8,100,29.55,7.0,SSE,3.5,-,0.02,Rain,Light Rain,150,2011-10-14 02:50:00
10:53 PM,62.1,61.0,96,29.57,9.0,SSE,4.6,-,0.02,,Overcast,160,2011-10-14 02:53:00
11:16 PM,64.4,62.6,94,29.54,8.0,South,5.8,-,0.01,Rain,Light Rain,170,2011-10-14 03:16:00
11:53 PM,64.0,63.0,96,29.56,8.0,SSE,9.2,-,0.01,,Mostly Cloudy,160,2011-10-14 03:53:00